• In Russia
  • List of Countries
  • For 7 days
  • Water Temperature
  • Satellite Maps
  • Weather Map
  • Weather Widgets
  • user-avatar
    Login

    Hourly Weather Falaba

    Today, 18 June, Monday

    Time Temperature Precipitation Wind Pressure Humidity
    00:00 +24°C° 0.1 mm 1 mps 745 mmHg 99%
    01:00 +24°C° 0.1 mm 1 mps 745 mmHg 99%
    02:00 +24°C° 0.1 mm 1 mps 744 mmHg 99%
    03:00 +24°C° 0.1 mm 1 mps 744 mmHg 98%
    04:00 +24°C° 0.1 mm 1 mps 744 mmHg 98%
    05:00 +24°C° 0.1 mm 1 mps 744 mmHg 98%
    06:00 +25°C° 0.1 mm 1 mps 744 mmHg 97%
    07:00 +25°C° 0.1 mm 1 mps 745 mmHg 96%
    08:00 +26°C° 0.1 mm 1 mps 745 mmHg 94%
    09:00 +27°C° 0 mm 1 mps 745 mmHg 84%
    10:00 +29°C° 0 mm 1 mps 745 mmHg 73%
    11:00 +31°C° 0 mm 2 mps 745 mmHg 63%
    12:00 +31°C° 0 mm 2 mps 744 mmHg 64%
    13:00 +31°C° 0 mm 1 mps 743 mmHg 66%
    14:00 +31°C° 0 mm 1 mps 743 mmHg 67%
    15:00 +30°C° 0.4 mm 1 mps 743 mmHg 72%
    16:00 +29°C° 0.4 mm 1 mps 743 mmHg 76%
    17:00 +29°C° 0.4 mm 1 mps 742 mmHg 81%
    18:00 +27°C° 0.1 mm 1 mps 743 mmHg 86%
    19:00 +26°C° 0.1 mm 2 mps 743 mmHg 90%
    20:00 +25°C° 0.1 mm 2 mps 744 mmHg 94%
    21:00 +25°C° 0 mm 1 mps 744 mmHg 95%
    22:00 +25°C° 0 mm 1 mps 745 mmHg 96%
    23:00 +25°C° 0 mm 1 mps 745 mmHg 97%

    Tomorrow, 19 June, Tuesday

    Time Temperature Precipitation Wind Pressure Humidity
    00:00 +24°C° 0 mm 1 mps 744 mmHg 97%
    01:00 +24°C° 0 mm 1 mps 744 mmHg 98%
    02:00 +24°C° 0 mm 1 mps 743 mmHg 98%
    03:00 +24°C° 0 mm 1 mps 743 mmHg 98%
    04:00 +24°C° 0 mm 1 mps 743 mmHg 97%
    05:00 +24°C° 0 mm 1 mps 743 mmHg 97%
    06:00 +25°C° 0.1 mm 1 mps 744 mmHg 95%
    07:00 +25°C° 0.1 mm 1 mps 744 mmHg 93%
    08:00 +26°C° 0.1 mm 1 mps 745 mmHg 92%
    09:00 +27°C° 0.1 mm 1 mps 744 mmHg 88%
    10:00 +27°C° 0.1 mm 1 mps 744 mmHg 85%
    11:00 +28°C° 0.1 mm 1 mps 744 mmHg 81%
    12:00 +29°C° 0.1 mm 1 mps 743 mmHg 76%
    13:00 +30°C° 0.1 mm 1 mps 743 mmHg 71%
    14:00 +31°C° 0.1 mm 2 mps 742 mmHg 66%
    15:00 +30°C° 0.2 mm 2 mps 742 mmHg 72%
    16:00 +29°C° 0.2 mm 2 mps 742 mmHg 78%
    17:00 +28°C° 0.2 mm 1 mps 741 mmHg 84%
    18:00 +27°C° 1.1 mm 1 mps 742 mmHg 88%
    19:00 +26°C° 1.1 mm 1 mps 743 mmHg 92%
    20:00 +25°C° 1.1 mm 1 mps 743 mmHg 96%
    21:00 +25°C° 0.4 mm 1 mps 744 mmHg 97%
    22:00 +24°C° 0.4 mm 1 mps 744 mmHg 98%
    23:00 +24°C° 0.4 mm 1 mps 744 mmHg 99%

    Day after tomorrow, 20 June, Wednesday

    Time Temperature Precipitation Wind Pressure Humidity
    00:00 +24°C° 0 mm 1 mps 743 mmHg 99%
    01:00 +24°C° 0 mm 1 mps 743 mmHg 99%
    02:00 +24°C° 0 mm 1 mps 743 mmHg 99%
    03:00 +24°C° 0 mm 1 mps 743 mmHg 99%
    04:00 +24°C° 0 mm 1 mps 743 mmHg 99%
    05:00 +24°C° 0 mm 1 mps 743 mmHg 99%
    06:00 +24°C° 0 mm 1 mps 743 mmHg 97%
    07:00 +25°C° 0 mm 1 mps 744 mmHg 96%
    08:00 +25°C° 0 mm 1 mps 744 mmHg 94%
    09:00 +26°C° 0.1 mm 1 mps 744 mmHg 89%
    10:00 +27°C° 0.1 mm 1 mps 744 mmHg 84%
    11:00 +28°C° 0.1 mm 1 mps 744 mmHg 79%
    12:00 +30°C° 0.1 mm 2 mps 743 mmHg 72%
    13:00 +31°C° 0.1 mm 2 mps 743 mmHg 66%
    14:00 +32°C° 0.1 mm 2 mps 742 mmHg 59%
    15:00 +31°C° 0.6 mm 2 mps 742 mmHg 66%
    16:00 +30°C° 0.6 mm 2 mps 742 mmHg 73%
    17:00 +28°C° 0.6 mm 2 mps 742 mmHg 80%
    18:00 +27°C° 0.1 mm 2 mps 743 mmHg 85%
    19:00 +26°C° 0.1 mm 1 mps 743 mmHg 89%
    20:00 +25°C° 0.1 mm 1 mps 744 mmHg 94%
    21:00 +25°C° 0 mm 1 mps 744 mmHg 95%
    22:00 +24°C° 0 mm 1 mps 744 mmHg 97%
    23:00 +24°C° 0 mm 1 mps 745 mmHg 99%

    21 June, Thursday

    Time Temperature Precipitation Wind Pressure Humidity
    00:00 +24°C° 0 mm 1 mps 744 mmHg 98%
    01:00 +24°C° 0 mm 1 mps 743 mmHg 98%
    02:00 +24°C° 0 mm 1 mps 743 mmHg 98%
    03:00 +24°C° 0 mm 1 mps 743 mmHg 98%
    04:00 +24°C° 0 mm 1 mps 743 mmHg 98%
    05:00 +24°C° 0 mm 1 mps 743 mmHg 98%
    06:00 +25°C° 0 mm 1 mps 743 mmHg 94%
    07:00 +26°C° 0 mm 1 mps 744 mmHg 90%
    08:00 +27°C° 0 mm 1 mps 744 mmHg 86%
    09:00 +28°C° 0 mm 1 mps 744 mmHg 80%
    10:00 +29°C° 0 mm 2 mps 744 mmHg 74%
    11:00 +30°C° 0 mm 2 mps 744 mmHg 69%
    12:00 +30°C° 0.5 mm 1 mps 743 mmHg 73%
    13:00 +29°C° 0.5 mm 1 mps 743 mmHg 78%
    14:00 +29°C° 0.5 mm 1 mps 742 mmHg 82%
    15:00 +29°C° 1 mm 1 mps 742 mmHg 84%
    16:00 +28°C° 1 mm 1 mps 742 mmHg 85%
    17:00 +28°C° 1 mm 1 mps 742 mmHg 87%
    18:00 +27°C° 0.1 mm 1 mps 743 mmHg 90%
    19:00 +26°C° 0.1 mm 1 mps 743 mmHg 94%
    20:00 +25°C° 0.1 mm 1 mps 744 mmHg 97%
    21:00 +24°C° 0 mm 1 mps 744 mmHg 98%
    22:00 +24°C° 0 mm 1 mps 744 mmHg 98%
    23:00 +22°C° 0 mm 0 mps 744 mmHg 99%

    22 June, Friday

    Time Temperature Precipitation Wind Pressure Humidity
    00:00 +22°C° 0 mm 0 mps 743 mmHg 99%
    01:00 +22°C° 0 mm 0 mps 743 mmHg 99%
    02:00 +22°C° 0 mm 0 mps 742 mmHg 99%
    03:00 +22°C° 0.2 mm 0 mps 742 mmHg 98%
    04:00 +22°C° 0.2 mm 0 mps 742 mmHg 98%
    05:00 +22°C° 0.2 mm 0 mps 743 mmHg 98%
    06:00 +23°C° 0 mm 0 mps 743 mmHg 97%
    07:00 +23°C° 0 mm 0 mps 743 mmHg 96%
    08:00 +24°C° 0 mm 0 mps 744 mmHg 94%
    09:00 +25°C° 0.1 mm 0 mps 743 mmHg 90%
    10:00 +25°C° 0.1 mm 0 mps 743 mmHg 87%
    11:00 +28°C° 0.1 mm 1 mps 743 mmHg 83%
    12:00 +28°C° 0.1 mm 1 mps 742 mmHg 83%
    13:00 +28°C° 0.1 mm 1 mps 742 mmHg 84%
    14:00 +28°C° 0.1 mm 1 mps 741 mmHg 84%
    15:00 +28°C° 0.1 mm 1 mps 741 mmHg 86%
    16:00 +28°C° 0.1 mm 1 mps 741 mmHg 87%
    17:00 +25°C° 0.1 mm 0 mps 741 mmHg 89%
    18:00 +27°C° 0.3 mm 1 mps 742 mmHg 92%
    19:00 +26°C° 0.3 mm 1 mps 742 mmHg 95%
    20:00 +25°C° 0.3 mm 1 mps 743 mmHg 98%
    21:00 +25°C° 0.4 mm 1 mps 743 mmHg 98%
    22:00 +25°C° 0.4 mm 1 mps 743 mmHg 99%
    23:00 +25°C° 0.4 mm 1 mps 743 mmHg 99%

    23 June, Saturday

    Time Temperature Precipitation Wind Pressure Humidity
    00:00 +25°C° 0.2 mm 1 mps 742 mmHg 99%
    01:00 +25°C° 0.2 mm 1 mps 742 mmHg 99%
    02:00 +23°C° 0.2 mm 0 mps 742 mmHg 99%
    03:00 +23°C° 0.1 mm 0 mps 742 mmHg 99%
    04:00 +23°C° 0.1 mm 0 mps 742 mmHg 99%
    05:00 +23°C° 0.1 mm 0 mps 742 mmHg 99%
    06:00 +23°C° 0.1 mm 0 mps 742 mmHg 97%
    07:00 +24°C° 0.1 mm 0 mps 743 mmHg 95%
    08:00 +24°C° 0.1 mm 0 mps 743 mmHg 93%
    09:00 +28°C° 0 mm 1 mps 743 mmHg 82%
    10:00 +31°C° 0 mm 1 mps 743 mmHg 71%
    11:00 +33°C° 0 mm 1 mps 742 mmHg 60%
    12:00 +32°C° 0.6 mm 1 mps 742 mmHg 63%
    13:00 +32°C° 0.6 mm 1 mps 741 mmHg 66%
    14:00 +31°C° 0.6 mm 1 mps 740 mmHg 70%
    15:00 +30°C° 1.3 mm 1 mps 740 mmHg 77%
    16:00 +28°C° 1.3 mm 1 mps 741 mmHg 85%
    17:00 +27°C° 1.3 mm 1 mps 741 mmHg 92%
    18:00 +26°C° 0.7 mm 1 mps 741 mmHg 94%
    19:00 +26°C° 0.7 mm 1 mps 742 mmHg 95%
    20:00 +25°C° 0.7 mm 1 mps 742 mmHg 97%
    21:00 +25°C° 1.7 mm 1 mps 742 mmHg 97%
    22:00 +25°C° 1.7 mm 1 mps 742 mmHg 98%
    23:00 +24°C° 1.7 mm 1 mps 742 mmHg 98%
    Show more